Location: Rimouski
(48.4330°N, 68.5170°W)
Time: 03:38:31
(UTC-04:00)

Envisat - Pass Details

Date: 25 April 2019
Orbit: 764 x 766 km, 98.2° (Epoch: 25 May)

Event Time Altitude Azimuth Distance (km) Brightness Sun altitude
Rises 20:17:42 0° 208° (SSW) 3,222 6.2 -6.6°
Reaches altitude 10° 20:20:41 10° 227° (SW) 2,301 5.7 -7.0°
Maximum altitude 20:24:11 19° 271° (W) 1,786 5.9 -7.5°
Drops below altitude 10° 20:27:42 10° 315° (NW) 2,313 7.0 -8.0°
Sets 20:30:43 0° 333° (NNW) 3,245 7.3 -8.4°
